Weather in Morozovo

Russia / Belgorod Oblast     51°10′00″N   37°12′48″E
temp.,
°C
wind,
m/s
gust,
m/s
humid.,
%
clouds,
%
prec.,
mm/h
press.,
hPa
HPBL,
m
16 may, mon
mon1600:00+7w4109450 0.0 1010262
03:00+7wnw5119765 0.0 1010351
06:00+7wnw6139436 0.0 1011496
09:00+11wnw69715 0.0 1011786
12:00+14wnw8104959 0.3 10112277
15:00+13wnw7105288 0.3 10112111
18:00+13wnw710570 0.1 10111495
21:00+7w4117613 0.2 1012242
17 may, tue
tue1700:00+6w512835 0.0 1012311
03:00+4w512845 0.0 1012280
06:00+5w513795 0.0 1012414
09:00+10wnw710621 0.0 10111053
12:00+13wnw8104497 0.1 10102426
15:00+14wnw8104298 0.1 10082750
18:00+12wnw68560 0.1 10081435
21:00+7w49751 0.1 1009156
18 may, wed
wed1800:00+5w47845 0.0 1008132
03:00+3w49955 0.0 1009173
06:00+4nw4109421 0.0 1009369
09:00+6nw51091100 0.4 1010597
12:00+10n677798 0.4 10101095
15:00+10n797699 1.0 1012984
18:00+8n369036 1.0 1014266
21:00+6wnw349114 1.0 101544
19 may, thu
thu1900:00+6nw5129416 0.0 1017315
03:00+5nw511965 0.0 1018296
06:00+4nw5109446 0.0 1019366
09:00+10wnw6106891 0.0 1019979
12:00+14wnw91256100 0.0 10181798
15:00+14wnw91360100 0.0 10171706
18:00+12nw81270100 0.3 10171350
21:00+8nnw2696100 1.8 1019384
20 may, fri
fri2000:00+7nnw2494100 1.4 1019197
03:00+5nnw34955 1.4 101972
06:00+5nnw23941 0.0 1020101
09:00+10nw22711 0.0 1020731
12:00+14w335048 0.0 10191850
15:00+14w3552100 0.0 10171706
18:00+14w2462100 0.0 10151032
21:00+10wsw2493100 0.5 1013120